EC248A LEAS-LELN

Flight info

Callsign EC248A
Flight time 0h 38m
Altitude 13000
Route XONDA M30 ROVAK
Aircraft BE58/L-SDFG/S

Departure

Time 2026-05-05 20:33
Airport Asturias Airport (LEAS)

Arrival

Time 2026-05-05 21:11
Airport León Int'l Airport (LELN)
Time Latitude Longitude Altitude Speed Heading
2026-05-05 20:23 43.56045 -6.03429 421 ft 0 kts 200°
2026-05-05 20:26 43.56041 -6.03428 422 ft 1 kts 142°
2026-05-05 20:26 43.56056 -6.03408 421 ft 5 kts 31°
2026-05-05 20:27 43.56089 -6.03362 421 ft 8 kts 90°
2026-05-05 20:27 43.56072 -6.03282 421 ft 8 kts 102°
2026-05-05 20:27 43.56099 -6.03220 420 ft 8 kts 36°
2026-05-05 20:27 43.56117 -6.03150 420 ft 8 kts 102°
2026-05-05 20:28 43.56101 -6.03074 419 ft 9 kts 105°
2026-05-05 20:28 43.56078 -6.02979 419 ft 11 kts 110°
2026-05-05 20:28 43.56048 -6.02865 418 ft 13 kts 108°
2026-05-05 20:28 43.56019 -6.02729 416 ft 15 kts 106°
2026-05-05 20:29 43.55993 -6.02610 413 ft 13 kts 108°
2026-05-05 20:29 43.55964 -6.02488 410 ft 12 kts 109°
2026-05-05 20:29 43.55945 -6.02372 405 ft 10 kts 82°
2026-05-05 20:29 43.55969 -6.02293 401 ft 0 kts 63°
2026-05-05 20:30 43.55970 -6.02290 401 ft 2 kts 62°
2026-05-05 20:31 43.55990 -6.02240 398 ft 9 kts 61°
2026-05-05 20:31 43.56054 -6.02206 395 ft 10 kts 326°
2026-05-05 20:31 43.56071 -6.02253 398 ft 0 kts 291°
2026-05-05 20:32 43.56116 -6.02441 408 ft 57 kts 289°
2026-05-05 20:33 43.56268 -6.03178 618 ft 83 kts 279°
2026-05-05 20:33 43.56406 -6.04126 654 ft 116 kts 290°
2026-05-05 20:33 43.56764 -6.05154 967 ft 119 kts 295°
2026-05-05 20:33 43.56887 -6.06221 1434 ft 114 kts 275°
2026-05-05 20:34 43.57019 -6.07411 1503 ft 135 kts 291°
2026-05-05 20:34 43.57384 -6.08572 1828 ft 132 kts 294°
2026-05-05 20:34 43.57729 -6.09728 2196 ft 126 kts 291°
2026-05-05 20:34 43.57952 -6.10862 2564 ft 121 kts 288°
2026-05-05 20:35 43.58165 -6.11940 2949 ft 115 kts 284°
2026-05-05 20:35 43.58306 -6.12962 3337 ft 106 kts 302°
2026-05-05 20:35 43.58599 -6.13864 3701 ft 104 kts 285°
2026-05-05 20:35 43.58740 -6.14803 4080 ft 98 kts 288°
2026-05-05 20:36 43.58866 -6.15757 4354 ft 105 kts 284°
2026-05-05 20:36 43.58981 -6.16804 4516 ft 120 kts 281°
2026-05-05 20:36 43.59069 -6.18065 4464 ft 149 kts 275°
2026-05-05 20:36 43.58699 -6.19465 4646 ft 162 kts 233°
2026-05-05 20:37 43.57771 -6.20311 4950 ft 165 kts 197°
2026-05-05 20:37 43.56615 -6.20338 5225 ft 167 kts 175°
2026-05-05 20:37 43.55488 -6.20124 5593 ft 162 kts 172°
2026-05-05 20:37 43.54344 -6.19887 5752 ft 170 kts 175°
2026-05-05 20:38 43.53196 -6.19741 6106 ft 163 kts 174°
2026-05-05 20:38 43.52088 -6.19506 6368 ft 164 kts 170°
2026-05-05 20:38 43.50942 -6.19145 6531 ft 170 kts 165°
2026-05-05 20:38 43.49822 -6.18701 6821 ft 167 kts 163°
2026-05-05 20:39 43.48705 -6.18206 7039 ft 169 kts 162°
2026-05-05 20:39 43.47578 -6.17682 7215 ft 173 kts 162°
2026-05-05 20:39 43.46475 -6.17086 7468 ft 171 kts 152°
2026-05-05 20:39 43.45442 -6.16240 7672 ft 172 kts 148°
2026-05-05 20:40 43.44408 -6.15419 7881 ft 173 kts 150°
2026-05-05 20:40 43.43414 -6.14512 8083 ft 173 kts 140°
2026-05-05 20:40 43.42577 -6.13337 8259 ft 173 kts 128°
2026-05-05 20:40 43.41796 -6.12061 8485 ft 171 kts 127°
2026-05-05 20:41 43.41169 -6.10700 8650 ft 170 kts 112°
2026-05-05 20:41 43.40802 -6.09148 8851 ft 166 kts 96°
2026-05-05 20:41 43.40734 -6.07648 9143 ft 155 kts 83°
2026-05-05 20:41 43.40757 -6.06153 9277 ft 158 kts 85°
2026-05-05 20:42 43.40713 -6.04615 9429 ft 160 kts 91°
2026-05-05 20:42 43.40533 -6.03112 9596 ft 161 kts 97°
2026-05-05 20:42 43.40245 -6.01611 9708 ft 166 kts 108°
2026-05-05 20:42 43.39585 -6.00261 9816 ft 172 kts 135°
2026-05-05 20:43 43.38606 -5.99361 9991 ft 169 kts 151°
2026-05-05 20:43 43.37583 -5.98611 10156 ft 167 kts 153°
2026-05-05 20:43 43.36558 -5.97853 10268 ft 168 kts 149°
2026-05-05 20:43 43.35569 -5.96987 10416 ft 166 kts 145°
2026-05-05 20:44 43.34481 -5.96380 10404 ft 175 kts 164°
2026-05-05 20:44 43.33309 -5.95979 10609 ft 167 kts 173°
2026-05-05 20:44 43.32160 -5.96146 10620 ft 172 kts 203°
2026-05-05 20:44 43.30975 -5.96421 10772 ft 171 kts 180°
2026-05-05 20:45 43.28784 -5.95909 11302 ft 151 kts 172°
2026-05-05 20:45 43.27780 -5.95655 11550 ft 143 kts 168°
2026-05-05 20:45 43.26870 -5.95342 11934 ft 124 kts 166°
2026-05-05 20:46 43.26042 -5.95120 12136 ft 124 kts 174°
2026-05-05 20:46 43.25166 -5.94932 12250 ft 133 kts 169°
2026-05-05 20:46 43.24261 -5.94691 12490 ft 129 kts 176°
2026-05-05 20:46 43.23376 -5.94564 12675 ft 131 kts 172°
2026-05-05 20:47 43.22472 -5.94295 12809 ft 137 kts 168°
2026-05-05 20:47 43.21495 -5.94081 12930 ft 142 kts 173°
2026-05-05 20:47 43.20511 -5.93887 13048 ft 147 kts 172°
2026-05-05 20:47 43.19464 -5.93666 13066 ft 158 kts 172°
2026-05-05 20:48 43.18328 -5.93457 13067 ft 168 kts 173°
2026-05-05 20:48 43.17139 -5.93250 13069 ft 177 kts 173°
2026-05-05 20:48 43.15899 -5.93030 13074 ft 184 kts 173°
2026-05-05 20:48 43.14591 -5.92793 13071 ft 190 kts 173°
2026-05-05 20:49 43.13270 -5.92550 13069 ft 194 kts 173°
2026-05-05 20:49 43.11905 -5.92297 13062 ft 198 kts 173°
2026-05-05 20:49 43.10542 -5.92042 13058 ft 199 kts 172°
2026-05-05 20:49 43.09177 -5.91786 13054 ft 199 kts 172°
2026-05-05 20:50 43.07783 -5.91523 13049 ft 200 kts 172°
2026-05-05 20:50 43.06408 -5.91263 13045 ft 201 kts 172°
2026-05-05 20:50 43.05011 -5.90998 13043 ft 201 kts 172°
2026-05-05 20:50 43.03634 -5.90737 13040 ft 200 kts 172°
2026-05-05 20:51 43.02238 -5.90472 13035 ft 200 kts 172°
2026-05-05 20:51 43.00869 -5.90213 13033 ft 200 kts 172°
2026-05-05 20:51 42.99498 -5.89953 13031 ft 200 kts 172°
2026-05-05 20:51 42.98109 -5.89689 13029 ft 200 kts 172°
2026-05-05 20:52 42.96736 -5.89429 13028 ft 199 kts 172°
2026-05-05 20:52 42.95348 -5.89166 13028 ft 199 kts 172°
2026-05-05 20:52 42.93985 -5.88908 13028 ft 199 kts 172°
2026-05-05 20:52 42.92604 -5.88646 13029 ft 199 kts 172°
2026-05-05 20:53 42.91241 -5.88388 13024 ft 199 kts 172°
2026-05-05 20:53 42.89851 -5.88125 13026 ft 200 kts 172°
2026-05-05 20:53 42.88448 -5.87865 13023 ft 201 kts 173°
2026-05-05 20:53 42.87021 -5.87597 13024 ft 201 kts 173°
2026-05-05 20:54 42.85620 -5.87334 13027 ft 201 kts 173°
2026-05-05 20:54 42.84162 -5.87060 13029 ft 201 kts 173°
2026-05-05 20:54 42.82693 -5.86783 13021 ft 202 kts 173°
2026-05-05 20:54 42.81278 -5.86517 13020 ft 202 kts 173°
2026-05-05 20:55 42.79866 -5.86251 13022 ft 202 kts 173°
2026-05-05 20:55 42.78449 -5.85984 13025 ft 202 kts 173°
2026-05-05 20:55 42.77038 -5.85718 13026 ft 202 kts 173°
2026-05-05 20:55 42.75630 -5.85453 13026 ft 202 kts 173°
2026-05-05 20:56 42.74229 -5.85189 13024 ft 202 kts 173°
2026-05-05 20:56 42.72815 -5.84905 13017 ft 202 kts 167°
2026-05-05 20:56 42.71646 -5.83886 13028 ft 198 kts 131°
2026-05-05 20:56 42.70839 -5.82343 13021 ft 197 kts 120°
2026-05-05 20:57 42.70055 -5.80734 12773 ft 201 kts 121°
2026-05-05 20:57 42.69255 -5.79108 12437 ft 206 kts 121°
2026-05-05 20:57 42.68453 -5.77487 12076 ft 208 kts 121°
2026-05-05 20:57 42.67498 -5.75972 11743 ft 209 kts 132°
2026-05-05 20:58 42.66473 -5.74540 11424 ft 208 kts 133°
2026-05-05 20:58 42.65441 -5.73109 11106 ft 208 kts 133°
2026-05-05 20:58 42.64428 -5.71710 10799 ft 208 kts 133°
2026-05-05 20:58 42.63400 -5.70276 10490 ft 208 kts 132°
2026-05-05 20:59 42.62350 -5.68795 10176 ft 208 kts 132°
2026-05-05 20:59 42.61324 -5.67355 9867 ft 205 kts 132°
2026-05-05 20:59 42.60294 -5.65913 9548 ft 202 kts 132°
2026-05-05 20:59 42.59266 -5.64470 9225 ft 200 kts 132°
2026-05-05 21:00 42.58607 -5.62785 8863 ft 193 kts 92°
2026-05-05 21:00 42.58944 -5.60998 8513 ft 185 kts 59°
2026-05-05 21:00 42.59629 -5.59439 8195 ft 182 kts 53°
2026-05-05 21:00 42.60369 -5.57907 7873 ft 181 kts 53°
2026-05-05 21:01 42.61112 -5.56373 7549 ft 181 kts 53°
2026-05-05 21:01 42.61802 -5.54920 7242 ft 180 kts 54°
2026-05-05 21:01 42.62479 -5.53487 6944 ft 180 kts 54°
2026-05-05 21:01 42.63156 -5.52039 6646 ft 180 kts 57°
2026-05-05 21:02 42.63726 -5.50509 6350 ft 180 kts 62°
2026-05-05 21:02 42.64231 -5.48927 6056 ft 180 kts 65°
2026-05-05 21:02 42.64700 -5.47345 5764 ft 180 kts 65°
2026-05-05 21:02 42.65165 -5.45735 5476 ft 179 kts 66°
2026-05-05 21:03 42.65624 -5.44146 5201 ft 178 kts 66°
2026-05-05 21:03 42.66062 -5.42622 5238 ft 162 kts 66°
2026-05-05 21:03 42.66465 -5.41209 5264 ft 155 kts 67°
2026-05-05 21:03 42.66837 -5.39873 5256 ft 147 kts 66°
2026-05-05 21:04 42.67200 -5.38567 5343 ft 144 kts 65°
2026-05-05 21:04 42.67745 -5.37434 5377 ft 142 kts 40°
2026-05-05 21:04 42.68621 -5.36833 5409 ft 142 kts
2026-05-05 21:04 42.69620 -5.36968 5419 ft 148 kts 340°
2026-05-05 21:05 42.70542 -5.37667 5451 ft 152 kts 323°
2026-05-05 21:05 42.71289 -5.38672 5503 ft 151 kts 309°
2026-05-05 21:05 42.71849 -5.39894 5534 ft 149 kts 303°
2026-05-05 21:05 42.72310 -5.41171 5526 ft 151 kts 289°
2026-05-05 21:06 42.72486 -5.42614 5524 ft 151 kts 281°
2026-05-05 21:06 42.72664 -5.44027 5549 ft 148 kts 281°
2026-05-05 21:06 42.72660 -5.45438 5556 ft 148 kts 264°
2026-05-05 21:06 42.72370 -5.46803 5497 ft 152 kts 252°
2026-05-05 21:07 42.71900 -5.48138 5491 ft 153 kts 237°
2026-05-05 21:07 42.71070 -5.49102 5474 ft 156 kts 213°
2026-05-05 21:07 42.70158 -5.49927 5451 ft 156 kts 221°
2026-05-05 21:07 42.69366 -5.50997 5382 ft 158 kts 229°
2026-05-05 21:08 42.68682 -5.52160 5418 ft 153 kts 241°
2026-05-05 21:08 42.68232 -5.53492 5370 ft 155 kts 245°
2026-05-05 21:08 42.67500 -5.54601 5284 ft 158 kts 219°
2026-05-05 21:08 42.66620 -5.55488 5162 ft 147 kts 220°
2026-05-05 21:09 42.65853 -5.56388 4800 ft 143 kts 225°
2026-05-05 21:09 42.65082 -5.57228 4513 ft 135 kts 217°
2026-05-05 21:09 42.64344 -5.57926 4431 ft 121 kts 224°
2026-05-05 21:09 42.63760 -5.58775 4241 ft 122 kts 231°
2026-05-05 21:10 42.63176 -5.59679 3993 ft 123 kts 229°
2026-05-05 21:10 42.62539 -5.60569 3721 ft 125 kts 228°
2026-05-05 21:10 42.61950 -5.61407 3634 ft 107 kts 225°
2026-05-05 21:10 42.61382 -5.62162 3447 ft 108 kts 228°
2026-05-05 21:11 42.60819 -5.62933 3277 ft 106 kts 229°
2026-05-05 21:11 42.60260 -5.63693 3101 ft 105 kts 227°
2026-05-05 21:11 42.59730 -5.64419 3002 ft 93 kts 224°
2026-05-05 21:11 42.59377 -5.64909 3002 ft 35 kts 227°
2026-05-05 21:12 42.59233 -5.65107 3005 ft 12 kts 225°
2026-05-05 21:12 42.59174 -5.65146 3004 ft 6 kts 167°
2026-05-05 21:12 42.59143 -5.65118 3003 ft 3 kts 138°
2026-05-05 21:12 42.59124 -5.65093 3003 ft 3 kts 134°
2026-05-05 21:13 42.59107 -5.65069 3002 ft 0 kts 134°
2026-05-05 21:13 42.59102 -5.65062 3002 ft 4 kts 134°
2026-05-05 21:14 42.59074 -5.65013 3001 ft 6 kts 104°
2026-05-05 21:14 42.59102 -5.64950 3000 ft 9 kts 44°
2026-05-05 21:14 42.59157 -5.64872 3000 ft 11 kts 46°
2026-05-05 21:14 42.59224 -5.64781 2999 ft 12 kts 43°
2026-05-05 21:15 42.59235 -5.64675 2997 ft 13 kts 138°
2026-05-05 21:15 42.59208 -5.64590 2996 ft 5 kts 81°
2026-05-05 21:15 42.59187 -5.64532 2994 ft 8 kts 135°
2026-05-05 21:15 42.59197 -5.64464 2993 ft 8 kts 45°
2026-05-05 21:16 42.59206 -5.64452 2993 ft 0 kts 40°